sat.trackr.live / text

‹ back to catalog

LEMUR-2-BALTO

NORAD 63395 · 2025-052BH

PAYLOAD ACTIVE UNKNOWN

§ Identity

Operator
Country
US
Launch date
2025-03-15
Launch site
AFWTR
Launch vehicle
Mass (kg)
RCS (m²)

Purposes: earth_obs

External: N2YO · Heavens-Above · Gunter

§ Orbital elements

Epoch: 2026-05-24T16:54:38.646144Z

Period
96.01 min
Inclination
97.6885°
Eccentricity
0.0004982
Mean motion
14.99795855 rev/d
Perigee alt
564.1 km
Apogee alt
571.0 km
Semi-major
6,945.7 km
B*
3.7863e-4
RAAN
38.5979°
Arg perigee
115.9817°
Mean anomaly
244.1920°
Rev number
6,524

§ Raw data

LEMUR-2-BALTO1 63395U 25052BH  26144.70461396  .00004626  00000+0  37863-3 0  99902 63395  97.6885  38.5979 0004982 115.9817 244.1920 14.99795855 65248

JSON: /api/v1/satellites/63395 · /tle

For live sub-satellite position, see the globe view (requires WebGL).

§ Visibility from observer

Set your observer location to see the next 7 days of passes ≥ 10°. The values pass through the URL so the page stays shareable.

No JS? Fill the form by hand. The geolocation button needs JavaScript.